Location: Moscow
(30.9132°N, 94.8252°W)
Time: 05:37:43
(UTC+00:00)

Cosmos 2056 Rocket - Pass Details

Date: 15 November 2025
Orbit: 738 x 795 km, 74.0° (Epoch: 04 December)

Event Time Altitude Azimuth Distance (km) Brightness Sun altitude
Exits shadow 10:21:54 48° 143° (SE) 1,028 4.3 -30.9°
Maximum altitude 10:22:55 56° 103° (ESE) 939 4.1 -30.7°
Drops below altitude 10° 10:28:11 10° 26° (NNE) 2,364 6.2 -29.6°
Sets 10:30:37 0° 22° (NNE) 3,293 7.0 -29.1°
